{"data":{"norad_id":58153,"intl_designator":"2023-166D","name":"STARLINK-30831","alt_names":[],"object_type":"PAYLOAD","status":"ACTIVE","operator":null,"country":"US","launch_date":"2023-10-29","launch_site_code":"AFWTR","launch_vehicle":null,"mission":null,"orbit_class":"UNKNOWN","rcs_meters":null,"size_class":null,"mass_kg":null,"dimensions":null,"purposes":["comms"],"wikipedia_slug":null,"has_3d_model":false,"image_url":null,"decayed_at":null,"tle_current":{"epoch":"2026-05-25T05:04:50.117088Z","epoch_age_seconds":50082,"freshness":"FRESH","line1":"1 58153U 23166D   26145.21169117  .00000013  00000+0  12562-4 0  9999","line2":"2 58153  53.1612 224.2846 0001173  89.5560 270.5576 15.30187434144899","mean_motion":15.30187434,"eccentricity":0.0001173,"inclination_deg":53.1612,"raan_deg":224.2846,"arg_perigee_deg":89.556,"mean_anomaly_deg":270.5576,"bstar":1.2562e-5,"rev_number":14489,"period_min":94.106118505741,"perigee_km":474.4486868882,"apogee_km":476.0564920859,"semimajor_km":6853.389589487,"source":"CELESTRAK","updated_at":"2026-05-25T13:38:18.536555Z"}}}